DateTime,DeltaTime,Roll,TargetAngle,Position,Power
2022-05-24 14:26:55.766,0,0.52,0.97,5,24.56
2022-05-24 14:26:55.880,0.114000588655472,0.13,0.53,4,18.45
2022-05-24 14:26:55.996,0.229992717504501,0.82,7.66,3,-23.53
2022-05-24 14:26:56.110,0.343993306159973,1.97,13.64,3,-50.24
2022-05-24 14:26:56.224,0.457993894815445,2.35,11.66,6,-31.99
2022-05-24 14:26:56.339,0.573000311851501,1.74,5.15,10,15.05
2022-05-24 14:26:56.454,0.687996670603752,1.24,3.91,11,30.49
2022-05-24 14:26:56.569,0.802993029356003,0.94,3.73,10,30.4
2022-05-24 14:26:56.683,0.916993618011475,0.84,4.25,8,21.48
2022-05-24 14:26:56.798,1.03200003504753,1.18,7.38,6,-3.21
2022-05-24 14:26:56.913,1.14699639379978,1.6,9.2,6,-16.69
2022-05-24 14:26:57.028,1.26199275255203,2.46,14.11,6,-38.04
2022-05-24 14:26:57.143,1.37699916958809,3.32,17.1,7,-48.16
2022-05-24 14:26:57.257,1.49099975824356,3.24,12.72,10,-15.79
2022-05-24 14:26:57.372,1.60599611699581,1.87,2.34,14,47.62
2022-05-24 14:26:57.482,1.71599350869656,1.07,2.01,13,53.54
2022-05-24 14:26:57.597,1.83099992573261,1.41,8.17,9,9.86
2022-05-24 14:26:57.711,1.94500051438808,1.36,6.25,7,8.69
2022-05-24 14:26:57.826,2.05999687314034,0.95,3.29,6,16.77
2022-05-24 14:26:57.940,2.17399746179581,1.04,5.77,6,-2.62
2022-05-24 14:26:58.056,2.28999964892864,2.17,14.33,6,-43.43
2022-05-24 14:26:58.170,2.40400023758411,2.73,13.77,6,-29.99
2022-05-24 14:26:58.284,2.51800082623959,1.86,4.44,10,18.04
2022-05-24 14:26:58.399,2.63299718499184,0.89,0.6,11,47.52
2022-05-24 14:26:58.514,2.74799354374409,0.3,0.24,9,44.71
2022-05-24 14:26:58.629,2.86299996078014,0.47,4.11,5,12.82
2022-05-24 14:26:58.743,2.97700054943562,1.14,8.68,3,-24.48
2022-05-24 14:26:58.858,3.09199690818787,1.39,7.71,4,-19.08
2022-05-24 14:26:58.973,3.20699326694012,1.64,8.62,4,-17.64
2022-05-24 14:26:59.088,3.32199968397617,2.09,10.97,5,-30.69
2022-05-24 14:26:59.198,3.43199707567692,2.24,10.29,8,-19.3
2022-05-24 14:26:59.313,3.54699343442917,1.4,2.93,10,32.94
2022-05-24 14:26:59.427,3.66099402308464,0.22,-2.65,9,60
2022-05-24 14:26:59.543,3.77699621021748,0.14,1.89,6,21.12
2022-05-24 14:26:59.657,3.89099679887295,0.74,7.01,2,-14.02
2022-05-24 14:26:59.771,4.00499738752842,0.76,4.45,2,-11.09
2022-05-24 14:26:59.886,4.11999374628067,0.97,6.05,2,-17.94
2022-05-24 14:27:00.001,4.23500016331673,1.46,9.03,3,-32.02
2022-05-24 14:27:00.116,4.34999652206898,1.5,7.14,5,-13.39
2022-05-24 14:27:00.230,4.46399711072445,1.4,6.22,7,-2.08
2022-05-24 14:27:00.345,4.5789934694767,0.25,-2.36,7,50.07
2022-05-24 14:27:00.459,4.69299405813217,-0.22,-1.13,5,30.82
2022-05-24 14:27:00.574,4.80800047516823,0.02,2.86,2,1.43
2022-05-24 14:27:00.685,4.91899363696575,0.32,4.21,0,-13.61
2022-05-24 14:27:00.800,5.03400005400181,1.04,8.51,1,-41.51
2022-05-24 14:27:00.914,5.14800064265728,1.94,12.46,2,-49.65
2022-05-24 14:27:01.029,5.26299700140953,2.11,9.92,7,-26.96
2022-05-24 14:27:01.143,5.376997590065,1.57,4.9,10,20.82
2022-05-24 14:27:01.258,5.49199394881725,1.45,6.31,11,16.28
2022-05-24 14:27:01.374,5.60799613595009,1,3.26,10,36.01
2022-05-24 14:27:01.488,5.72199672460556,1.01,5.32,10,15.16
2022-05-24 14:27:01.603,5.83699308335781,1.44,8.7,7,1.72
2022-05-24 14:27:01.718,5.95199950039387,2.23,12.97,8,-32.3
2022-05-24 14:27:01.832,6.06600008904934,3.02,15.76,8,-32.81
2022-05-24 14:27:01.947,6.18099644780159,3.69,17.58,11,-40.82
2022-05-24 14:27:02.061,6.29499703645706,3.7,14.74,14,-8.36
2022-05-24 14:27:02.176,6.40999339520931,2.58,5.92,16,46.33
2022-05-24 14:27:02.290,6.52399398386478,1.84,4.95,16,47.98
2022-05-24 14:27:02.406,6.63999617099762,2.02,9.58,10,19.54
2022-05-24 14:27:02.515,6.74899779260159,2.19,10.2,8,-8.91
2022-05-24 14:27:02.630,6.86399415135384,1.93,7.33,9,4.36
2022-05-24 14:27:02.745,6.97900056838989,2.14,10.13,8,-6.26
2022-05-24 14:27:02.860,7.09399692714214,3.21,17.68,8,-49.31
2022-05-24 14:27:02.974,7.20799751579762,3.37,14.21,10,-20.26
2022-05-24 14:27:03.089,7.32299387454987,2.36,5.63,12,30.72
2022-05-24 14:27:03.203,7.43699446320534,0.96,-1.02,12,63.15
2022-05-24 14:27:03.319,7.55299665033817,1.03,5.65,8,16.6
2022-05-24 14:27:03.433,7.66699723899364,1.29,7.41,5,-4.64
2022-05-24 14:27:03.548,7.7819935977459,1.04,4.29,4,3.64
2022-05-24 14:27:03.663,7.89700001478195,1.24,6.99,4,-16.11
2022-05-24 14:27:03.776,8.00999477505684,2.1,12.88,5,-42.73
2022-05-24 14:27:03.892,8.12599696218967,2.6,13.05,6,-31.46
2022-05-24 14:27:04.006,8.23999755084515,2.62,10.96,10,-16.88
2022-05-24 14:27:04.121,8.3549939095974,1.98,5.88,12,26.79
2022-05-24 14:27:04.232,8.46599712967873,1.26,3.05,12,40.83
2022-05-24 14:27:04.346,8.5799977183342,1.13,5.13,9,24.3
2022-05-24 14:27:04.460,8.69399830698967,1.46,8.31,6,-5.1
2022-05-24 14:27:04.575,8.80899466574192,1.89,10.24,6,-23.11
2022-05-24 14:27:04.691,8.92499685287476,2.78,15.37,7,-44.2
2022-05-24 14:27:04.805,9.03899744153023,3.65,18.34,10,-48.8
2022-05-24 14:27:04.921,9.15499962866306,3.46,12.98,14,-0.94
2022-05-24 14:27:05.034,9.26799438893795,2.83,8.91,16,30.64
2022-05-24 14:27:05.149,9.38300080597401,2.18,6.54,15,43.7
2022-05-24 14:27:05.263,9.49700139462948,2.01,8.04,12,25.54
2022-05-24 14:27:05.378,9.61199775338173,1.91,8.03,10,13.62
2022-05-24 14:27:05.493,9.72699411213398,1.8,7.53,10,9.96
2022-05-24 14:27:05.608,9.84200052917004,2.02,9.81,10,0.07
2022-05-24 14:27:05.722,9.95600111782551,3.06,17.01,9,-35.11
2022-05-24 14:27:05.837,10.0709974765778,3.72,17.64,9,-34.98
2022-05-24 14:27:05.952,10.18599383533,3.46,12.73,13,-7.57
2022-05-24 14:27:06.063,10.2969970554113,2.04,2.67,14,60.21
2022-05-24 14:27:06.178,10.4119934141636,1.31,3.12,12,44.12
2022-05-24 14:27:06.292,10.5259940028191,2.05,12.14,7,-14.02
2022-05-24 14:27:06.406,10.6399945914745,2.11,9.39,6,-11.49
2022-05-24 14:27:06.521,10.7550010085106,2.25,10.23,6,-18.52
2022-05-24 14:27:06.637,10.8709931373596,3.01,15.65,5,-45.27
2022-05-24 14:27:06.751,10.9849937260151,3.72,17.86,7,-55.53
2022-05-24 14:27:06.865,11.0989943146706,3.49,12.98,13,-14.83
2022-05-24 14:27:06.980,11.2140007317066,2.56,6.67,15,40.84
2022-05-24 14:27:07.095,11.3289970904589,2.46,9.86,14,18.97
2022-05-24 14:27:07.209,11.4429976791143,2.51,10.79,13,10.77
2022-05-24 14:27:07.324,11.5579940378666,2.44,9.98,12,12.58
2022-05-24 14:27:07.438,11.6719946265221,2.41,10.06,12,7.41
2022-05-24 14:27:07.554,11.7879968136549,3.22,16.56,12,-25.46
2022-05-24 14:27:07.668,11.9019974023104,4.73,24.87,13,-61.42
2022-05-24 14:27:07.782,12.0159979909658,4.32,15.13,17,5.54
2022-05-24 14:27:07.897,12.1309943497181,4.22,16.05,19,7.63
2022-05-24 14:27:08.008,12.2419975697994,3.55,11.22,18,39.9
2022-05-24 14:27:08.123,12.3569939285517,2.76,8.01,18,43.39
2022-05-24 14:27:08.238,12.4720003455877,2.13,6.42,14,49.8
2022-05-24 14:27:08.352,12.5860009342432,2.82,14.65,10,-18.63
2022-05-24 14:27:08.467,12.7009972929955,3.47,16.7,10,-34.73
2022-05-24 14:27:08.581,12.8149978816509,3.38,13.2,10,-8.87
2022-05-24 14:27:08.696,12.9299942404032,3.46,14.19,12,-18.99
2022-05-24 14:27:08.810,13.0439948290586,3.56,14.66,14,-9.95
2022-05-24 14:27:08.925,13.1590012460947,3.15,11,14,17.82
2022-05-24 14:27:09.040,13.273997604847,1.83,2.4,14,56.25
2022-05-24 14:27:09.155,13.3889939635992,1.32,4.15,11,37.01
2022-05-24 14:27:09.270,13.5040003806353,2.09,12.42,7,-19.53
2022-05-24 14:27:09.384,13.6180009692907,2.48,12.12,7,-24.52
2022-05-24 14:27:09.500,13.7339930981398,2.91,13.84,7,-29.26
2022-05-24 14:27:09.613,13.8469979166985,3.32,15.18,9,-34.74
2022-05-24 14:27:09.728,13.9619942754507,3.57,15.34,13,-23.97
2022-05-24 14:27:09.842,14.0759948641062,3.02,9.88,15,23.19
2022-05-24 14:27:09.958,14.191997051239,2.4,7.49,15,34.38
2022-05-24 14:27:10.068,14.3019944429398,1.95,6.62,14,33.93
2022-05-24 14:27:10.182,14.4159950315952,2.21,10.63,11,6.95
2022-05-24 14:27:10.298,14.5319972187281,2.74,13.62,10,-17.93
2022-05-24 14:27:10.412,14.6459978073835,3.45,16.94,10,-33.23
2022-05-24 14:27:10.527,14.7609941661358,3.76,16.27,11,-24.61
2022-05-24 14:27:10.641,14.8749947547913,3.93,16.22,14,-20.52
2022-05-24 14:27:10.756,14.9900011718273,3.63,13.13,17,9.93
2022-05-24 14:27:10.870,15.1040017604828,2.72,7.33,17,48.7
2022-05-24 14:27:10.985,15.218998119235,2.11,6.5,14,43.02
2022-05-24 14:27:11.100,15.3339944779873,1.82,6.82,12,25.27
2022-05-24 14:27:11.215,15.4490008950233,2.02,9.7,9,4.42
2022-05-24 14:27:11.330,15.5639972537756,2.2,10.27,8,-7.91
2022-05-24 14:27:11.444,15.6779978424311,2.8,14.18,8,-29.39
2022-05-24 14:27:11.559,15.7929942011833,3.2,14.69,9,-26.22
2022-05-24 14:27:11.673,15.9069947898388,2.74,9.31,10,7.64
2022-05-24 14:27:11.788,16.0220012068748,1.83,4.2,10,31.7
2022-05-24 14:27:11.899,16.1329943686724,0.73,-0.52,11,49.24
2022-05-24 14:27:12.013,16.2469949573278,0.27,0.66,8,41.02
2022-05-24 14:27:12.129,16.3629971444607,0.2,2.18,3,18.25
2022-05-24 14:27:12.243,16.4769977331161,0.69,6.28,1,-23.55
2022-05-24 14:27:12.358,16.5919940918684,0.85,5.44,2,-18.06
2022-05-24 14:27:12.472,16.7059946805239,1.31,8.33,3,-26.98
2022-05-24 14:27:12.587,16.8210010975599,1.51,7.92,4,-17.6
2022-05-24 14:27:12.702,16.9359974563122,1.41,6.28,6,-5.91
2022-05-24 14:27:12.816,17.0499980449677,0.57,0.02,6,34.25
2022-05-24 14:27:12.931,17.1649944037199,-0.41,-3.92,6,44.82
2022-05-24 14:27:13.046,17.280000820756,-0.56,-0.9,3,24.57
2022-05-24 14:27:13.160,17.3940014094114,-0.05,3.84,0,-11.87
2022-05-24 14:27:13.275,17.5089977681637,0.72,7.66,0,-37.98
2022-05-24 14:27:13.390,17.6239941269159,1.47,10.19,1,-43.14
2022-05-24 14:27:13.500,17.7340015769005,1.68,8.53,4,-26.67
2022-05-24 14:27:13.615,17.8489979356527,1.42,5.61,8,0.54
2022-05-24 14:27:13.730,17.963994294405,1.05,3.8,8,23.47
2022-05-24 14:27:13.844,18.0779948830605,0.6,1.88,8,26.39
2022-05-24 14:27:13.959,18.1930013000965,0.32,1.65,7,25.69
2022-05-24 14:27:14.073,18.307001888752,0.38,3.35,4,11.6
2022-05-24 14:27:14.188,18.4219982475042,1.29,10.25,5,-37.01
2022-05-24 14:27:14.304,18.5380004346371,1.84,10.57,5,-20.96
2022-05-24 14:27:14.418,18.6520010232925,2.28,11.66,7,-28.15
2022-05-24 14:27:14.531,18.7649957835674,2.62,12.42,10,-20.75
2022-05-24 14:27:14.647,18.8809979707003,2.21,7.71,11,17.99
2022-05-24 14:27:14.762,18.9959943294525,1.27,2.06,12,43.34
2022-05-24 14:27:14.876,19.109994918108,0.51,0.23,10,50.45
2022-05-24 14:27:14.991,19.225001335144,0.43,2.93,6,22.07
2022-05-24 14:27:15.101,19.3349987268448,0.91,7.02,3,-14.02
2022-05-24 14:27:15.216,19.449995085597,1.43,9.02,3,-30.04
2022-05-24 14:27:15.331,19.5650015026331,1.64,8.4,3,-20.76
2022-05-24 14:27:15.445,19.6789920330048,1.61,7.27,7,-16.06
2022-05-24 14:27:15.560,19.7939984500408,1.11,3.42,7,23.69
2022-05-24 14:27:15.675,19.9089948087931,0.32,-0.58,7,34.97
2022-05-24 14:27:15.790,20.0240012258291,-0.35,-2.43,6,40.21
2022-05-24 14:27:15.904,20.1380018144846,-0.64,-1.7,2,29.48
2022-05-24 14:27:16.019,20.2529981732368,-0.51,0.54,-2,-0.65
2022-05-24 14:27:16.134,20.3679945319891,-0.28,1.76,-2,-20
2022-05-24 14:27:16.248,20.4819951206446,0.11,3.87,0,-24.7
2022-05-24 14:27:16.363,20.5970015376806,0.27,3.38,0,-9.29
2022-05-24 14:27:16.478,20.7119978964329,0.53,4.71,2,-19.87
2022-05-24 14:27:16.593,20.8269942551851,-0.07,-1.06,1,22.62
2022-05-24 14:27:16.702,20.9359958767891,-1.41,-9.09,3,50.02
2022-05-24 14:27:16.818,21.0519980639219,-2.04,-8.12,-2,45.74
2022-05-24 14:27:16.933,21.1669944226742,-1.94,-4.59,-6,-0.85
2022-05-24 14:27:17.048,21.2820008397102,-1.28,0.17,-7,-35.88
2022-05-24 14:27:17.162,21.3960014283657,-1.22,-2.3,-6,-17.17
2022-05-24 14:27:17.276,21.5100020170212,-0.9,0.01,-4,-26.47
2022-05-24 14:27:17.391,21.6249983757734,-0.69,0.28,-3,-16.13
2022-05-24 14:27:17.506,21.7399947345257,-0.55,0.41,-2,-14.18
2022-05-24 14:27:17.621,21.8550011515617,-1.26,-5.72,0,22.21
2022-05-24 14:27:17.735,21.9690017402172,-2.18,-9.92,0,46.04
2022-05-24 14:27:17.850,22.0839980989695,-2.13,-5.47,-4,15.97
2022-05-24 14:27:17.965,22.1989944577217,-1.49,-0.69,-5,-24.24
2022-05-24 14:27:18.079,22.3129950463772,-0.83,1.75,-6,-31.25
2022-05-24 14:27:18.194,22.4280014634132,-0.14,4.27,-4,-46.01
2022-05-24 14:27:18.309,22.5429978221655,0.25,4.33,1,-30.69
2022-05-24 14:27:18.419,22.6529952138662,-0.09,-0.05,4,15.74
2022-05-24 14:27:18.533,22.7669958025217,-0.41,-1.1,6,25.01
2022-05-24 14:27:18.648,22.881992161274,-0.85,-3.16,5,41.71
2022-05-24 14:27:18.763,22.99699857831,-0.92,-1.79,3,24.63
2022-05-24 14:27:18.878,23.1119949370623,-0.43,2.41,0,-4.53
2022-05-24 14:27:18.993,23.2270013540983,-0.01,3.52,0,-18.12
2022-05-24 14:27:19.107,23.3410019427538,1.04,10,0,-47.4
2022-05-24 14:27:19.222,23.455998301506,1.51,9.06,1,-34.96
2022-05-24 14:27:19.335,23.5689930617809,1.36,5.89,5,-14.86
2022-05-24 14:27:19.451,23.6849952489138,0.77,1.82,7,21.98
2022-05-24 14:27:19.566,23.8000016659498,0.3,0.73,7,28.08
2022-05-24 14:27:19.681,23.9149980247021,-0.17,-0.87,5,33.1
2022-05-24 14:27:19.795,24.0289986133575,0,2.51,2,3.2
2022-05-24 14:27:19.906,24.1400018334389,0.68,7.11,2,-29.85
2022-05-24 14:27:20.021,24.2549981921911,1.39,9.69,3,-34.02
2022-05-24 14:27:20.135,24.3689987808466,1.59,8.2,5,-18.15
2022-05-24 14:27:20.250,24.4839951395988,2.02,10.68,7,-24.39
2022-05-24 14:27:20.364,24.5979957282543,1.9,7.85,9,1.3
2022-05-24 14:27:20.479,24.7129920870066,1.42,4.66,10,22.41
2022-05-24 14:27:20.593,24.826992675662,0.45,-0.97,10,51.15
2022-05-24 14:27:20.709,24.9429948627949,0.22,1.5,7,30.67
2022-05-24 14:27:20.823,25.0569954514503,0.64,5.82,3,-4.1
2022-05-24 14:27:20.938,25.1720018684864,1.19,8.36,3,-29.08
2022-05-24 14:27:21.053,25.2869982272387,1.93,11.76,3,-39.02
2022-05-24 14:27:21.167,25.4009988158941,2.08,9.69,6,-24.42
2022-05-24 14:27:21.282,25.5159951746464,1.63,5.49,8,10.47
2022-05-24 14:27:21.397,25.6310015916824,0.79,0.85,9,36.26
2022-05-24 14:27:21.511,25.7449921220541,-0.22,-3.49,8,56.53
2022-05-24 14:27:21.622,25.8559953421354,-0.35,-0,5,26.07
2022-05-24 14:27:21.738,25.9719975292683,0.17,4.58,0,-7.56
2022-05-24 14:27:21.851,26.0849922895432,0.31,3.5,1,-18.33
2022-05-24 14:27:21.965,26.1989928781986,0.45,3.93,1,-10.5
2022-05-24 14:27:22.080,26.3139992952347,1.01,7.74,2,-31.73
2022-05-24 14:27:22.195,26.4289956539869,1.51,9.2,3,-29.77
2022-05-24 14:27:22.310,26.5439920127392,0.87,2.03,5,13.49
2022-05-24 14:27:22.424,26.6579926013947,-0.32,-4.57,6,48.49
2022-05-24 14:27:22.540,26.7739947885275,-0.93,-4.19,3,41.47
2022-05-24 14:27:22.654,26.887995377183,-0.6,1.07,0,-2.19
2022-05-24 14:27:22.768,27.0019959658384,-0.35,1.66,-3,-10.21
2022-05-24 14:27:22.884,27.1179981529713,0.03,3.53,-2,-31.5
2022-05-24 14:27:22.998,27.2319987416267,0.54,5.87,0,-32.81
2022-05-24 14:27:23.108,27.3419961333275,0.69,4.79,2,-15.46
2022-05-24 14:27:23.223,27.4569924920797,0.47,2.43,3,3.2
2022-05-24 14:27:23.338,27.5719989091158,-0.09,-1.02,4,21.03
2022-05-24 14:27:23.453,27.686995267868,-1.17,-7.09,4,53.06
2022-05-24 14:27:23.567,27.8009958565235,-1.77,-7.06,0,44.1
2022-05-24 14:27:23.682,27.9159922152758,-1.18,0.2,-4,-14.53
2022-05-24 14:27:23.797,28.0309986323118,-0.7,1.44,-5,-27.59
2022-05-24 14:27:23.912,28.1459949910641,-0.68,-0.53,-4,-16.06
2022-05-24 14:27:24.027,28.2610014081001,-0.47,1,-3,-20.58
2022-05-24 14:27:24.141,28.3750019967556,-0.35,1.02,0,-15.13
2022-05-24 14:27:24.255,28.4889925271273,-0.73,-2.46,0,17.6
2022-05-24 14:27:24.370,28.6039989441633,-1.9,-10,1,49.28
2022-05-24 14:27:24.485,28.7189953029156,-2.74,-11.5,-2,53.19
2022-05-24 14:27:24.599,28.832995891571,-2.56,-6.42,-7,7.05
2022-05-24 14:27:24.710,28.9439991116524,-2,-2.83,-9,-27.53
2022-05-24 14:27:24.824,29.0579997003078,-1.87,-4.19,-8,-20.04
2022-05-24 14:27:24.940,29.1740018874407,-1.78,-4.09,-7,-14.85
2022-05-24 14:27:25.053,29.2869966477156,-1.62,-3.26,-6,-15.45
2022-05-24 14:27:25.169,29.4029988348484,-1.75,-4.96,-5,-1.76
2022-05-24 14:27:25.285,29.5190010219812,-2.62,-11.21,-5,33.08
2022-05-24 14:27:25.398,29.6319957822561,-3.74,-16.27,-6,50.96
2022-05-24 14:27:25.513,29.7469921410084,-4.29,-15.66,-9,36.44
2022-05-24 14:27:25.627,29.8609927296638,-3.85,-9.8,-15,-7.55
2022-05-24 14:27:25.742,29.9759991466999,-3.05,-5.39,-14,-51.04
2022-05-24 14:27:25.857,30.0909955054522,-3.11,-9.45,-12,-11.54
2022-05-24 14:27:25.972,30.2060019224882,-3.26,-10.27,-10,-3.65
2022-05-24 14:27:26.086,30.3199924528599,-2.83,-6.3,-9,-17.94
2022-05-24 14:27:26.201,30.4349988698959,-3.02,-9.66,-8,7.46
